This is the latest recevied weather packets stored in our database for station/object K6POO-1. If no packets are shown the sender has not sent any weather packets the latest 10 day(s).
| Time | Temp. | Humidity | Pressure | Rain* | Wind** | Luminosity | Snow |
|---|---|---|---|---|---|---|---|
| 1788534033 | 17.22° C | 72% | 1013.9 hPa | 0 mm | - | 170 W/m² | - |
| 1788533752 | 17.22° C | 73% | 1014 hPa | 0 mm | - | 152 W/m² | - |
| 1788533427 | 16.67° C | 75% | 1013.8 hPa | 0 mm | - | 130 W/m² | - |
| 1788533123 | 16.67° C | 77% | 1014 hPa | 0 mm | - | 108 W/m² | - |
| 1788532819 | 16.11° C | 80% | 1013.9 hPa | 0 mm | - | 97 W/m² | - |
| 1788532514 | 15.56° C | 83% | 1013.9 hPa | 0 mm | - | 86 W/m² | - |
| 1788532211 | 15.56° C | 86% | 1013.7 hPa | 0 mm | - | 75 W/m² | - |
| 1788531908 | 15° C | 87% | 1013.6 hPa | 0 mm | - | 65 W/m² | - |
| 1788531607 | 14.44° C | 88% | 1013.6 hPa | 0 mm | - | 56 W/m² | - |
| 1788531302 | 13.89° C | 88% | 1013.4 hPa | 0 mm | - | 30 W/m² | - |
| 1788530999 | 13.33° C | 87% | 1013.4 hPa | 0 mm | - | 24 W/m² | - |
| 1788530693 | 13.33° C | 87% | 1013.4 hPa | 0 mm | - | 20 W/m² | - |
| 1788530392 | 13.33° C | 87% | 1013.2 hPa | 0 mm | - | 16 W/m² | - |
| 1788530092 | 13.89° C | 87% | 1013.2 hPa | 0 mm | - | 12 W/m² | - |
| 1788529789 | 13.89° C | 88% | 1013.4 hPa | 0 mm | - | 8 W/m² | - |
| 1788529488 | 13.89° C | 88% | 1013.2 hPa | 0 mm | - | 5 W/m² | - |
| 1788529183 | 13.33° C | 88% | 1013.3 hPa | 0 mm | - | 3 W/m² | - |
| 1788528877 | 13.33° C | 89% | 1013.3 hPa | 0 mm | - | 1 W/m² | - |
| 1788528573 | 13.33° C | 88% | 1013.2 hPa | 0 mm | - | 0 W/m² | - |
| 1788528268 | 13.33° C | 88% | 1012.9 hPa | 0 mm | - | 0 W/m² | - |
| 1788527968 | 13.33° C | 88% | 1013 hPa | 0 mm | - | 0 W/m² | - |
| 1788527663 | 13.89° C | 88% | 1012.8 hPa | 0 mm | - | 0 W/m² | - |
| 1788527359 | 13.33° C | 88% | 1012.8 hPa | 0 mm | - | 0 W/m² | - |
| 1788527058 | 13.89° C | 88% | 1013 hPa | 0 mm | - | 0 W/m² | - |
| 1788526753 | 13.89° C | 87% | 1012.8 hPa | 0 mm | - | 0 W/m² | - |
* Rain latest hour (hover to see other rain measurements)
** Current wind speed in m/s (hover to see current wind gust speed)